User: anonymous   Login
Location: Caltech
(34.1382°N, 118.1253°W)
Time: 19:03:14
(UTC-07:00)
Language:

GPS 2-04 Rocket1 - Orbit

View from above orbital plane
View from above orbital plane
View from above satellite
View from above satellite

Ground track
Ground track

The orbit data is extracted from the following two-line orbital elements,

1 20303U 89085B   15088.87824444  .00012636  00000-0  53274-3 0  9993
2 20303 035.6330 036.1123 0128383 243.2391 152.0851 15.15287370377160
Epoch (UTC): 29 March 2015 21:04:40
Eccentricity: 0.0128383
inclination: 35.6330°
perigee height: 431 km
apogee height: 608 km
right ascension of ascending node: 36.1123°
argument of perigee: 243.2391°
revolutions per day: 15.15287370
mean anomaly at epoch: 152.0851°
orbit number at epoch: 37716

The dashed part of the orbit path shows where the satellite is in the earth's shadow,  

DLR